[[{"header":{"parameterUnit":"m.s-1","parameterCategory":1,"la1":30.2991,"la2":30.254,"lo1":-89.0895,"lo2":-89.0444,"dy":0.0017,"dx":0.0017,"nx":28,"ny":28,"refTime":"2024-04-10T21:00:00:Z","depth":0,"parameterNumber":2,"parameterNumberName":"U-component_of_WINDS"},"data":[0,0,0,0,0,0,0,0,0,0,0,0,0,0,0,0,0,0,0,0,0,0,0,0,0,0,0,0,0,0,0,0,0,0,0,0,0,0,0,0,0,0,0,0,0,0,0,0,0,0,0,0,0,0,0,0,0,0,3.8652,3.8653,0,3.8701,3.8701,3.8702,3.8609,3.8606,3.8603,3.86,3.8649,3.8653,3.8658,0,0,0,0,0,0,0,0,0,0,0,0,0,3.8477,3.8481,3.8652,3.8653,3.8653,3.8701,3.8701,3.8702,3.861,3.8606,3.8603,3.8599,3.8648,3.8653,3.8658,0,0,0,0,0,0,0,0,0,0,0,0,0,3.8542,3.8482,3.8652,3.8613,3.861,3.8701,3.8702,3.8702,3.8611,3.8606,3.8602,3.8597,3.8646,3.8652,3.8659,3.8789,0,0,3.8678,3.868,0,0,0,0,0,0,0,0,3.8539,3.8549,3.8618,3.8616,3.8613,3.8644,3.8658,3.8731,3.8612,3.8611,3.86,3.8595,3.8651,3.8657,3.8676,3.8791,3.8793,3.8678,3.8682,3.8685,3.8686,0,0,0,0,0,0,0,3.8534,3.8546,3.8671,3.8619,3.8616,3.8592,3.8597,3.8671,3.8656,3.861,3.8604,3.8611,3.8649,3.867,3.8677,3.8794,3.8678,3.8684,3.8687,3.869,3.9017,3.9021,0,0,0,0,0,0,3.8535,3.8543,3.867,3.8673,3.8564,3.8599,3.8604,3.8639,3.8655,3.8653,3.8615,3.8606,3.8662,3.8669,3.8678,3.883,3.8685,3.869,3.8694,3.9012,3.9018,3.9023,0,0,0,0,0,0,3.8531,3.8547,3.8668,3.8606,3.862,3.8607,3.8647,3.8642,3.8663,3.8658,3.8655,3.8639,3.8659,3.8669,3.8762,3.883,3.8693,3.8699,3.9006,3.9014,3.902,3.9136,0,0,0,0,0,0,3.8527,3.8546,3.8596,3.8608,3.8623,3.8752,3.8651,3.8647,3.8675,3.8664,3.8681,3.8679,3.8656,3.8753,3.8768,3.8836,3.8704,3.9,3.9009,3.9018,3.9126,3.9147,3.9164,0,0,0,0,0,3.8521,3.8627,3.8599,3.8615,3.8686,3.8756,3.8765,3.8736,3.8681,3.873,3.8727,3.8678,3.8821,3.8763,3.8779,3.8851,3.8995,3.9007,3.9017,3.9118,3.9143,3.9164,0,0,0,0,0,0,3.8624,3.8628,3.8597,3.8711,3.8734,3.874,3.8802,3.8764,3.8803,3.8791,3.8754,3.8758,3.8858,3.8864,3.8799,3.8977,3.8898,3.8913,3.8969,3.8993,3.9012,3.9007,3.8709,0,0,0,0,0,3.866,3.8717,3.8717,3.8817,3.8831,3.8815,3.8844,3.882,3.8842,3.8851,3.8855,3.8878,3.8927,3.8961,3.9006,3.9127,3.9128,3.9184,3.9203,3.9219,3.9232,3.9294,3.9318,3.9059,3.9059,3.9059,0,0,3.8734,3.8744,3.8782,3.8838,3.8853,3.8912,3.8823,3.889,3.8933,3.8861,3.8948,3.8952,3.8975,3.9082,3.9129,3.9089,3.9303,3.9233,3.9245,3.925,3.9308,3.9332,3.9354,3.9067,3.9066,3.9064,0,0,3.89,3.8914,3.8998,3.9015,3.9039,3.9027,3.9047,3.906,3.9059,3.9146,3.9093,3.9144,3.9231,3.9248,3.9269,3.9441,3.9397,3.9457,3.9556,3.9617,3.9637,3.9655,3.9715,3.9737,3.947,3.9471,3.9471,0,3.899,3.9077,3.9046,3.9116,3.9141,3.908,3.9163,3.9181,3.9219,3.9237,3.9193,3.9299,3.9311,3.942,3.9462,3.9481,3.9502,3.9454,3.9637,3.9655,3.9671,3.9727,3.975,3.9477,3.9477,3.9476,3.9475,0,3.9185,3.9247,3.9312,3.9349,3.9382,3.9459,3.9438,3.9475,3.9449,3.9442,3.953,3.9542,3.9587,3.9612,3.9587,3.9717,3.9692,3.9643,3.9563,3.9703,3.9755,3.9776,3.9487,3.9485,3.9483,3.9481,0,0,3.9417,3.9436,3.946,3.9476,3.9497,3.9543,3.9617,3.9662,3.9694,3.9722,3.9781,3.9856,3.9811,3.9834,3.981,3.9864,3.9997,3.9808,3.9808,3.9841,4.014,4.0175,4.02,3.9969,3.9973,3.9977,4.0137,0,3.958,3.9707,3.968,3.9804,3.9859,3.9801,3.9865,3.9885,3.988,3.9926,3.992,3.9973,3.991,3.9923,3.9975,3.9971,4.0056,3.9959,4.0023,4.0025,4.0017,4.0228,4.0266,4.0416,4.0157,4.0161,4.0163,0,3.9787,3.9823,3.9952,3.9963,3.9986,4.0044,4.0082,4.0127,4.0147,4.014,4.0166,4.0131,4.0203,4.0124,4.0221,4.0155,4.018,4.0182,4.0187,4.019,4.0102,4.0235,4.0464,4.0486,4.0195,4.0193,4.0191,0,3.9941,4.0021,4.0108,4.0124,4.014,4.0181,4.019,4.0206,4.0234,4.0268,4.0285,4.0327,4.0349,4.0382,4.0359,4.0304,4.0459,4.0379,4.0454,4.0454,4.0488,4.0486,4.0722,4.0507,4.0507,4.0507,4.0506,0,4.0125,4.0206,4.0177,4.0231,4.0319,4.0288,4.0376,4.0378,4.0392,4.0444,4.0397,4.0447,4.0414,4.0461,4.0444,4.0526,4.0537,4.0532,4.0526,4.0535,4.0535,4.0549,4.0537,4.0513,4.0511,4.051,4.0509,0,4.0311,4.0295,4.0386,4.0393,4.0397,4.0462,4.0468,4.0517,4.0509,4.0575,4.0589,4.0576,4.0628,4.0609,4.0665,4.0653,4.0757,4.0738,4.075,4.0744,4.082,4.0812,4.1072,4.1103,4.0871,4.0873,4.0875,0,4.0428,4.0489,4.0503,4.0534,4.0546,4.0598,4.0626,4.0597,4.0629,4.0656,4.0702,4.075,4.0787,4.0873,4.0868,4.091,4.0891,4.0979,4.0897,4.0903,4.089,4.0885,4.089,4.0995,4.0997,4.1,4.1002,0,4.0638,4.0627,4.067,4.071,4.0746,4.0776,4.0802,4.083,4.0803,4.084,4.0893,4.0922,4.0979,4.1026,4.1064,4.1071,4.1032,4.1028,4.1047,4.1056,4.1059,4.1056,4.0793,4.1021,4.1019,4.1018,4.1017,4.1016,4.0792,4.0842,4.0859,4.0908,4.0925,4.095,4.0996,4.0994,4.1037,4.1081,4.1062,4.1122,4.114,4.1186,4.1199,4.1245,4.1211,4.124,4.1246,4.1253,4.1262,4.1054,4.1252,4.1252,4.1251,4.1251,4.125,0,4.0997,4.1005,4.1051,4.1088,4.1127,4.1087,4.1113,4.1147,4.1201,4.1221,4.1258,4.1318,4.1364,4.1363,4.1405,4.1442,4.1425,4.1454,4.145,4.1452,4.1291,4.127,4.1467,4.1467,4.1467,4.1467,4.1467,4.1467,4.1108,4.1191,4.1182,4.1272,4.1279,4.1338,4.1357,4.1379,4.1394,4.1464,4.1502,4.15,4.1511,4.1554,4.1594,4.1592,4.1609,4.1644,4.1636,4.1485,4.1464,4.1443,4.1422,4.1649,4.1649,4.1792,4.1793,4.1794]},{"header":{"parameterUnit":"m.s-1","parameterCategory":1,"la1":30.2991,"la2":30.254,"lo1":-89.0895,"lo2":-89.0444,"dy":0.0017,"dx":0.0017,"nx":28,"ny":28,"refTime":"2024-04-10T21:00:00:Z","depth":0,"parameterNumber":3,"parameterNumberName":"V-component_of_WINDS"},"data":[0,0,0,0,0,0,0,0,0,0,0,0,0,0,0,0,0,0,0,0,0,0,0,0,0,0,0,0,0,0,0,0,0,0,0,0,0,0,0,0,0,0,0,0,0,0,0,0,0,0,0,0,0,0,0,0,0,0,1.1546,1.1548,0,1.1677,1.1679,1.168,1.1722,1.1722,1.1721,1.172,1.1851,1.1855,1.1859,0,0,0,0,0,0,0,0,0,0,0,0,0,1.1329,1.1332,1.1546,1.1548,1.155,1.1677,1.1679,1.1681,1.1722,1.1722,1.1721,1.172,1.185,1.1855,1.186,0,0,0,0,0,0,0,0,0,0,0,0,0,1.1438,1.1334,1.1546,1.1586,1.1591,1.1677,1.1679,1.1681,1.1722,1.1722,1.1721,1.172,1.1849,1.1854,1.186,1.1915,0,0,1.1879,1.1881,0,0,0,0,0,0,0,0,1.1431,1.1445,1.1578,1.1583,1.1589,1.1683,1.165,1.1759,1.1723,1.1672,1.172,1.1719,1.1796,1.1806,1.1832,1.1921,1.1927,1.1879,1.1883,1.1886,1.1887,0,0,0,0,0,0,0,1.1424,1.144,1.1598,1.158,1.1587,1.1596,1.161,1.1671,1.1737,1.1677,1.168,1.1695,1.1798,1.1827,1.1836,1.1929,1.1879,1.1885,1.1888,1.1891,1.2068,1.2069,0,0,0,0,0,0,1.141,1.1433,1.1594,1.1602,1.1506,1.16,1.1617,1.1653,1.1737,1.1749,1.1696,1.1697,1.1817,1.1829,1.1841,1.191,1.1886,1.1891,1.1895,1.2067,1.2068,1.207,0,0,0,0,0,0,1.1405,1.1424,1.1589,1.1519,1.154,1.1605,1.1646,1.1656,1.1685,1.1751,1.1763,1.1713,1.1816,1.1832,1.1896,1.1915,1.1894,1.19,1.2066,1.2067,1.2069,1.2049,0,0,0,0,0,0,1.1399,1.1422,1.1444,1.1519,1.1544,1.1643,1.1647,1.166,1.1695,1.1698,1.177,1.1781,1.1817,1.1887,1.1902,1.1923,1.1904,1.2064,1.2067,1.2068,1.2049,1.205,1.2051,0,0,0,0,0,1.1391,1.1433,1.1445,1.1464,1.1574,1.1644,1.1659,1.17,1.1697,1.1719,1.1762,1.1779,1.191,1.1893,1.1911,1.1934,1.2063,1.2066,1.2068,1.2048,1.205,1.2051,0,0,0,0,0,0,1.1359,1.1444,1.1458,1.1526,1.1578,1.1651,1.1681,1.17,1.1753,1.1753,1.1801,1.1817,1.1877,1.1912,1.1891,1.1991,1.1988,1.1994,1.1966,1.1968,1.197,1.196,1.1909,0,0,0,0,0,1.1359,1.1411,1.1482,1.1535,1.156,1.1616,1.1648,1.1676,1.173,1.1752,1.18,1.1851,1.1904,1.1938,1.199,1.2053,1.2069,1.2078,1.2079,1.208,1.2085,1.2119,1.2124,1.2078,1.2078,1.2078,0,0,1.1362,1.1415,1.1444,1.153,1.1573,1.1624,1.1634,1.1688,1.1726,1.176,1.1824,1.186,1.1921,1.1984,1.2015,1.2015,1.2101,1.2083,1.2083,1.2088,1.2122,1.2127,1.2131,1.2079,1.2079,1.2079,0,0,1.1392,1.1437,1.1487,1.153,1.1595,1.1632,1.1643,1.1714,1.1739,1.1804,1.1831,1.1876,1.1966,1.2008,1.2041,1.2085,1.2103,1.2101,1.2109,1.2142,1.2146,1.2149,1.2165,1.217,1.2105,1.2105,1.2105,0,1.1387,1.1466,1.1509,1.1562,1.1598,1.1632,1.1681,1.172,1.1799,1.1823,1.1822,1.1935,1.1979,1.2052,1.2063,1.2089,1.2102,1.2094,1.2142,1.2146,1.215,1.2165,1.2171,1.2105,1.2105,1.2105,1.2105,0,1.1455,1.1509,1.1541,1.1617,1.1657,1.1707,1.1757,1.1792,1.1815,1.1851,1.1916,1.1969,1.2032,1.2051,1.2074,1.2128,1.2126,1.2133,1.2131,1.2153,1.2168,1.2174,1.2104,1.2104,1.2104,1.2104,0,0,1.1471,1.1569,1.158,1.1615,1.1688,1.1731,1.1781,1.1844,1.1873,1.1925,1.1969,1.2044,1.205,1.2088,1.2115,1.2145,1.2176,1.2148,1.215,1.2151,1.2237,1.2232,1.2238,1.2187,1.2189,1.219,1.2232,0,1.151,1.1605,1.1645,1.172,1.177,1.1802,1.1846,1.1896,1.193,1.1976,1.2014,1.2067,1.2072,1.2094,1.2125,1.2166,1.2194,1.2163,1.2227,1.2229,1.2212,1.2246,1.2241,1.2279,1.2238,1.2239,1.224,0,1.157,1.1624,1.1705,1.1772,1.1794,1.1833,1.1894,1.1938,1.1993,1.2016,1.2057,1.2083,1.2137,1.213,1.2204,1.2182,1.221,1.2234,1.2236,1.2244,1.2236,1.2255,1.2292,1.2297,1.225,1.2249,1.2248,0,1.1573,1.1665,1.1725,1.1754,1.1834,1.186,1.1894,1.1949,1.1984,1.2036,1.2059,1.2116,1.2147,1.2189,1.2229,1.2221,1.2298,1.2296,1.2318,1.2317,1.2334,1.2332,1.2376,1.2351,1.2351,1.2351,1.2351,0,1.1614,1.1662,1.1728,1.1765,1.1819,1.1863,1.1915,1.1951,1.1999,1.2043,1.2073,1.2113,1.2163,1.2209,1.224,1.2295,1.2309,1.2328,1.2336,1.2326,1.2324,1.2346,1.2344,1.2353,1.2352,1.2352,1.2352,0,1.1627,1.1673,1.1741,1.181,1.1829,1.1865,1.1925,1.1961,1.1996,1.2051,1.2066,1.2121,1.2176,1.222,1.2292,1.2313,1.2371,1.238,1.2353,1.2357,1.2377,1.2375,1.2436,1.2446,1.2415,1.2415,1.2415,0,1.165,1.1688,1.1762,1.1794,1.1828,1.1878,1.1914,1.1958,1.1994,1.206,1.2087,1.2145,1.2194,1.228,1.2326,1.238,1.239,1.2408,1.2399,1.2387,1.2391,1.2388,1.2392,1.2409,1.241,1.241,1.241,0,1.1687,1.1707,1.1759,1.1817,1.1859,1.1907,1.1956,1.1979,1.2032,1.207,1.2128,1.2165,1.2239,1.2295,1.2354,1.2388,1.2407,1.2412,1.242,1.2411,1.2393,1.2403,1.2356,1.2411,1.2411,1.2411,1.2411,1.241,1.1706,1.1741,1.1798,1.1853,1.1895,1.1939,1.1976,1.2016,1.2065,1.2129,1.2152,1.221,1.2263,1.2345,1.2379,1.2424,1.2426,1.2438,1.2441,1.2443,1.2442,1.2386,1.2435,1.2435,1.2435,1.2435,1.2435,0,1.1744,1.1782,1.1833,1.19,1.1943,1.1958,1.2012,1.2047,1.2099,1.2147,1.2194,1.2259,1.2314,1.2363,1.2419,1.2446,1.2456,1.2459,1.2458,1.2465,1.2437,1.2425,1.245,1.245,1.245,1.245,1.245,1.245,1.1769,1.1829,1.1856,1.1935,1.1973,1.2031,1.2061,1.2101,1.214,1.2212,1.2258,1.229,1.2338,1.2398,1.2448,1.2461,1.248,1.2481,1.2496,1.2469,1.2467,1.2465,1.2454,1.2485,1.2485,1.252,1.2521,1.2521]}]]